Flag for Bermuda Weather past 2 weeks in Hamilton, Bermuda

Now
68 °F

Scattered clouds.


Feels Like: 68 °F
Forecast: 64 / 69 °F
Wind: 32 mph from West

Location: Bermuda


UV Index: 7 (High)

Visibility: N/A


Pressure: 29.83 "Hg

Humidity: 60%

Dew point: 54 °F

Location of HamiltonLocation

Historic Weather in Hamilton

°F

Hamilton temperature yesterday

Maximum temperature yesterday: 75 °F (at 12:55 PM)
Minimum temperature yesterday: 68 °F (at 6:55 AM)
Average temperature yesterday: 72 °F

Past Weeks' High & Low Weather Summary

 TemperatureHumidityPressure
High75 °F (Apr 9, 12:55 PM)94% (Apr 9, 9:55 PM)30.42 "Hg (Apr 9, 9:55 PM)
Low63 °F (Apr 11, 12:55 AM)46% (Apr 11, 10:55 AM)29.65 "Hg (Apr 22, 3:55 PM)
Average70 °F73%30.13 "Hg
* Reported Apr 9 10:02 AM — Apr 24 9:55 AM, Hamilton, Weather by CustomWeather, © 2014

Note: Actual official high and low records may vary slightly from our data, if they occured in-between our weather recording intervals... More about our weather records

Advertising

Historic Weather Conditions — Data for Previous 24 hours

 ConditionsComfort  
Time TempWeatherWind HumidityBarometerVisibility
9:55 AM
Apr 24
68 °FScattered clouds.31 mph53%29.80 "HgN/A
8:55 AM68 °FScattered clouds.30 mph53%29.80 "HgN/A
7:55 AM66 °FScattered clouds.30 mph52%29.77 "HgN/A
6:55 AM66 °FPassing clouds.30 mph56%29.74 "HgN/A
5:55 AM66 °FPassing clouds.29 mph64%29.71 "HgN/A
4:55 AM68 °FPartly cloudy.30 mph69%29.71 "HgN/A
3:55 AM68 °FPassing clouds.29 mph73%29.68 "HgN/A
2:55 AM68 °FPassing clouds.26 mph78%29.68 "HgN/A
1:55 AM66 °FLots of rain. Mostly cloudy.25 mph88%29.68 "Hg1 mi
1:01 AM72 °FThunderstorms. Overcast.31 mph78%29.68 "HgN/A
12:55 AM72 °FOvercast.28 mph78%29.68 "HgN/A
11:55 PM
Apr 23
72 °FPassing clouds.24 mph78%29.71 "HgN/A
10:55 PM72 °FPartly cloudy.26 mph78%29.71 "HgN/A
9:55 PM72 °FPassing clouds.24 mph78%29.71 "HgN/A
8:55 PM72 °FPartly cloudy.20 mph78%29.71 "HgN/A
7:55 PM72 °FPartly sunny.22 mph78%29.71 "HgN/A
6:55 PM72 °FBroken clouds.22 mph78%29.71 "HgN/A
5:55 PM73 °FScattered clouds.21 mph74%29.71 "HgN/A
4:55 PM73 °FBroken clouds.23 mph74%29.74 "HgN/A
3:55 PM75 °FScattered clouds.17 mph69%29.74 "HgN/A
2:55 PM75 °FScattered clouds.21 mph69%29.77 "HgN/A
1:55 PM75 °FBroken clouds.22 mph69%29.77 "HgN/A
12:55 PM75 °FScattered clouds.17 mph69%29.80 "HgN/A
11:55 AM73 °FScattered clouds.10 mph74%29.80 "HgN/A
Weather by CustomWeather, © 2014

See weather overview